Year,Month,Day,Hour,Minute,Value (Times are PST for temperature in C)
2013,11,25,00,00,1.50
2013,11,25,00,01,1.50
2013,11,25,00,02,1.50
2013,11,25,00,03,1.50
2013,11,25,00,04,1.60
2013,11,25,00,05,1.60
2013,11,25,00,06,1.60
2013,11,25,00,07,1.60
2013,11,25,00,08,1.60
2013,11,25,00,09,1.60
2013,11,25,00,10,1.60
2013,11,25,00,11,1.60
2013,11,25,00,12,1.60
2013,11,25,00,13,1.60
2013,11,25,00,14,1.70
2013,11,25,00,15,1.70
2013,11,25,00,16,1.80
2013,11,25,00,17,1.80
2013,11,25,00,18,1.80
2013,11,25,00,19,1.80
2013,11,25,00,20,1.90
2013,11,25,00,21,1.90
2013,11,25,00,22,1.90
2013,11,25,00,23,1.90
2013,11,25,00,24,2.00
2013,11,25,00,25,2.00
2013,11,25,00,26,2.10
2013,11,25,00,27,2.10
2013,11,25,00,28,2.10
2013,11,25,00,29,2.10
2013,11,25,00,30,2.00
2013,11,25,00,31,2.00
2013,11,25,00,32,2.00
2013,11,25,00,33,1.90
2013,11,25,00,34,1.90
2013,11,25,00,35,1.80
2013,11,25,00,36,1.80
2013,11,25,00,37,1.80
2013,11,25,00,38,1.70
2013,11,25,00,39,1.70
2013,11,25,00,40,1.70
2013,11,25,00,41,1.70
2013,11,25,00,42,1.70
2013,11,25,00,43,1.60
2013,11,25,00,44,1.60
2013,11,25,00,45,1.60
2013,11,25,00,46,1.60
2013,11,25,00,47,1.60
2013,11,25,00,48,1.70
2013,11,25,00,49,1.70
2013,11,25,00,50,1.80
2013,11,25,00,51,1.90
2013,11,25,00,52,1.90
2013,11,25,00,53,1.90
2013,11,25,00,54,1.90
2013,11,25,00,55,1.90
2013,11,25,00,56,1.90
2013,11,25,00,57,1.90
2013,11,25,00,58,1.90
2013,11,25,00,59,1.90
2013,11,25,01,00,1.90
2013,11,25,01,01,1.90
2013,11,25,01,02,1.90
2013,11,25,01,03,1.90
2013,11,25,01,04,1.90
2013,11,25,01,05,1.90
2013,11,25,01,06,1.90
2013,11,25,01,07,1.80
2013,11,25,01,08,1.90
2013,11,25,01,09,2.00
2013,11,25,01,10,2.10
2013,11,25,01,11,2.30
2013,11,25,01,12,2.50
2013,11,25,01,13,2.60
2013,11,25,01,14,2.80
2013,11,25,01,15,3.00
2013,11,25,01,16,3.10
2013,11,25,01,17,3.30
2013,11,25,01,18,3.40
2013,11,25,01,19,3.50
2013,11,25,01,20,3.50
2013,11,25,01,21,3.60
2013,11,25,01,22,3.60
2013,11,25,01,23,3.70
2013,11,25,01,24,3.70
2013,11,25,01,25,3.70
2013,11,25,01,26,3.70
2013,11,25,01,27,3.70
2013,11,25,01,28,3.60
2013,11,25,01,29,3.60
2013,11,25,01,30,3.60
2013,11,25,01,31,3.60
2013,11,25,01,32,3.60
2013,11,25,01,33,3.50
2013,11,25,01,34,3.40
2013,11,25,01,35,3.40
2013,11,25,01,36,3.40
2013,11,25,01,37,3.30
2013,11,25,01,38,3.30
2013,11,25,01,39,3.30
2013,11,25,01,40,3.30
2013,11,25,01,41,3.30
2013,11,25,01,42,3.20
2013,11,25,01,43,3.20
2013,11,25,01,44,3.20
2013,11,25,01,45,3.20
2013,11,25,01,46,3.10
2013,11,25,01,47,3.10
2013,11,25,01,48,3.10
2013,11,25,01,49,3.10
2013,11,25,01,50,3.10
2013,11,25,01,51,3.10
2013,11,25,01,52,3.10
2013,11,25,01,53,3.10
2013,11,25,01,54,3.10
2013,11,25,01,55,3.10
2013,11,25,01,56,3.00
2013,11,25,01,57,3.00
2013,11,25,01,58,2.90
2013,11,25,01,59,2.90
2013,11,25,02,00,2.80
2013,11,25,02,01,2.80
2013,11,25,02,02,2.70
2013,11,25,02,03,2.70
2013,11,25,02,04,2.70
2013,11,25,02,05,2.60
2013,11,25,02,06,2.60
2013,11,25,02,07,2.60
2013,11,25,02,08,2.60
2013,11,25,02,09,2.60
2013,11,25,02,10,2.60
2013,11,25,02,11,2.60
2013,11,25,02,12,2.60
2013,11,25,02,13,2.60
2013,11,25,02,14,2.60
2013,11,25,02,15,2.60
2013,11,25,02,16,2.60
2013,11,25,02,17,2.50
2013,11,25,02,18,2.50
2013,11,25,02,19,2.40
2013,11,25,02,20,2.40
2013,11,25,02,21,2.40
2013,11,25,02,22,2.40
2013,11,25,02,23,2.40
2013,11,25,02,24,2.40
2013,11,25,02,25,2.40
2013,11,25,02,26,2.40
2013,11,25,02,27,2.50
2013,11,25,02,28,2.50
2013,11,25,02,29,2.60
2013,11,25,02,30,2.60
2013,11,25,02,31,2.60
2013,11,25,02,32,2.70
2013,11,25,02,33,2.80
2013,11,25,02,34,2.80
2013,11,25,02,35,2.90
2013,11,25,02,36,3.00
2013,11,25,02,37,3.20
2013,11,25,02,38,3.30
2013,11,25,02,39,3.30
2013,11,25,02,40,3.40
2013,11,25,02,41,3.40
2013,11,25,02,42,3.50
2013,11,25,02,43,3.50
2013,11,25,02,44,3.60
2013,11,25,02,45,3.70
2013,11,25,02,46,3.70
2013,11,25,02,47,3.80
2013,11,25,02,48,3.80
2013,11,25,02,49,3.90
2013,11,25,02,50,3.90
2013,11,25,02,51,3.90
2013,11,25,02,52,3.90
2013,11,25,02,53,3.90
2013,11,25,02,54,3.80
2013,11,25,02,55,3.70
2013,11,25,02,56,3.70
2013,11,25,02,57,3.60
2013,11,25,02,58,3.60
2013,11,25,02,59,3.50
2013,11,25,03,00,3.50
2013,11,25,03,01,3.40
2013,11,25,03,02,3.40
2013,11,25,03,03,3.30
2013,11,25,03,04,3.30
2013,11,25,03,05,3.30
2013,11,25,03,06,3.20
2013,11,25,03,07,3.20
2013,11,25,03,08,3.10
2013,11,25,03,09,3.10
2013,11,25,03,10,3.00
2013,11,25,03,11,3.00
2013,11,25,03,12,2.90
2013,11,25,03,13,2.90
2013,11,25,03,14,2.80
2013,11,25,03,15,2.80
2013,11,25,03,16,2.70
2013,11,25,03,17,2.70
2013,11,25,03,18,2.60
2013,11,25,03,19,2.60
2013,11,25,03,20,2.60
2013,11,25,03,21,2.60
2013,11,25,03,22,2.60
2013,11,25,03,23,2.60
2013,11,25,03,24,2.60
2013,11,25,03,25,2.60
2013,11,25,03,26,2.60
2013,11,25,03,27,2.50
2013,11,25,03,28,2.50
2013,11,25,03,29,2.40
2013,11,25,03,30,2.40
2013,11,25,03,31,2.40
2013,11,25,03,32,2.40
2013,11,25,03,33,2.40
2013,11,25,03,34,2.40
2013,11,25,03,35,2.40
2013,11,25,03,36,2.40
2013,11,25,03,37,2.50
2013,11,25,03,38,2.50
2013,11,25,03,39,2.50
2013,11,25,03,40,2.50
2013,11,25,03,41,2.50
2013,11,25,03,42,2.60
2013,11,25,03,43,2.70
2013,11,25,03,44,2.70
2013,11,25,03,45,2.70
2013,11,25,03,46,2.70
2013,11,25,03,47,2.60
2013,11,25,03,48,2.60
2013,11,25,03,49,2.60
2013,11,25,03,50,2.60
2013,11,25,03,51,2.60
2013,11,25,03,52,2.60
2013,11,25,03,53,2.60
2013,11,25,03,54,2.60
2013,11,25,03,55,2.60
2013,11,25,03,56,2.50
2013,11,25,03,57,2.50
2013,11,25,03,58,2.40
2013,11,25,03,59,2.40
2013,11,25,04,00,2.40
2013,11,25,04,01,2.40
2013,11,25,04,02,2.50
2013,11,25,04,03,2.60
2013,11,25,04,04,2.70
2013,11,25,04,05,2.80
2013,11,25,04,06,2.90
2013,11,25,04,07,3.00
2013,11,25,04,08,3.00
2013,11,25,04,09,3.10
2013,11,25,04,10,3.10
2013,11,25,04,11,3.20
2013,11,25,04,12,3.30
2013,11,25,04,13,3.30
2013,11,25,04,14,3.30
2013,11,25,04,15,3.30
2013,11,25,04,16,3.30
2013,11,25,04,17,3.20
2013,11,25,04,18,3.20
2013,11,25,04,19,3.10
2013,11,25,04,20,3.10
2013,11,25,04,21,3.10
2013,11,25,04,22,3.20
2013,11,25,04,23,3.10
2013,11,25,04,24,3.10
2013,11,25,04,25,3.00
2013,11,25,04,26,3.00
2013,11,25,04,27,2.90
2013,11,25,04,28,2.80
2013,11,25,04,29,2.80
2013,11,25,04,30,2.70
2013,11,25,04,31,2.70
2013,11,25,04,32,2.70
2013,11,25,04,33,2.80
2013,11,25,04,34,2.90
2013,11,25,04,35,2.90
2013,11,25,04,36,2.90
2013,11,25,04,37,2.90
2013,11,25,04,38,2.80
2013,11,25,04,39,2.80
2013,11,25,04,40,2.70
2013,11,25,04,41,2.60
2013,11,25,04,42,2.60
2013,11,25,04,43,2.50
2013,11,25,04,44,2.50
2013,11,25,04,45,2.40
2013,11,25,04,46,2.40
2013,11,25,04,47,2.40
2013,11,25,04,48,2.40
2013,11,25,04,49,2.30
2013,11,25,04,50,2.30
2013,11,25,04,51,2.30
2013,11,25,04,52,2.20
2013,11,25,04,53,2.20
2013,11,25,04,54,2.20
2013,11,25,04,55,2.10
2013,11,25,04,56,2.10
2013,11,25,04,57,2.00
2013,11,25,04,58,2.00
2013,11,25,04,59,2.00
2013,11,25,05,00,1.90
2013,11,25,05,01,1.90
2013,11,25,05,02,1.90
2013,11,25,05,03,1.90
2013,11,25,05,04,1.80
2013,11,25,05,05,1.80
2013,11,25,05,06,1.80
2013,11,25,05,07,1.80
2013,11,25,05,08,1.80
2013,11,25,05,09,1.80
2013,11,25,05,10,1.80
2013,11,25,05,11,1.70
2013,11,25,05,12,1.80
2013,11,25,05,13,1.90
2013,11,25,05,14,2.00
2013,11,25,05,15,2.10
2013,11,25,05,16,2.20
2013,11,25,05,17,2.30
2013,11,25,05,18,2.40
2013,11,25,05,19,2.40
2013,11,25,05,20,2.50
2013,11,25,05,21,2.60
2013,11,25,05,22,2.60
2013,11,25,05,23,2.70
2013,11,25,05,24,2.70
2013,11,25,05,25,2.80
2013,11,25,05,26,2.80
2013,11,25,05,27,2.80
2013,11,25,05,28,2.80
2013,11,25,05,29,2.70
2013,11,25,05,30,2.70
2013,11,25,05,31,2.70
2013,11,25,05,32,2.70
2013,11,25,05,33,2.70
2013,11,25,05,34,2.60
2013,11,25,05,35,2.60
2013,11,25,05,36,2.60
2013,11,25,05,37,2.50
2013,11,25,05,38,2.50
2013,11,25,05,39,2.50
2013,11,25,05,40,2.50
2013,11,25,05,41,2.50
2013,11,25,05,42,2.50
2013,11,25,05,43,2.50
2013,11,25,05,44,2.50
2013,11,25,05,45,2.60
2013,11,25,05,46,2.60
2013,11,25,05,47,2.60
2013,11,25,05,48,2.60
2013,11,25,05,49,2.60
2013,11,25,05,50,2.60
2013,11,25,05,51,2.60
2013,11,25,05,52,2.50
2013,11,25,05,53,2.50
2013,11,25,05,54,2.40
2013,11,25,05,55,2.30
2013,11,25,05,56,2.30
2013,11,25,05,57,2.20
2013,11,25,05,58,2.20
2013,11,25,05,59,2.10
2013,11,25,06,00,2.00
2013,11,25,06,01,2.00
2013,11,25,06,02,1.90
2013,11,25,06,03,1.90
2013,11,25,06,04,1.80
2013,11,25,06,05,1.80
2013,11,25,06,06,1.70
2013,11,25,06,07,1.60
2013,11,25,06,08,1.60
2013,11,25,06,09,1.50
2013,11,25,06,10,1.50
2013,11,25,06,11,1.40
2013,11,25,06,12,1.40
2013,11,25,06,13,1.30
2013,11,25,06,14,1.30
2013,11,25,06,15,1.30
2013,11,25,06,16,1.30
2013,11,25,06,17,1.30
2013,11,25,06,18,1.20
2013,11,25,06,19,1.20
2013,11,25,06,20,1.20
2013,11,25,06,21,1.20
2013,11,25,06,22,1.20
2013,11,25,06,23,1.20
2013,11,25,06,24,1.20
2013,11,25,06,25,1.10
2013,11,25,06,26,1.10
2013,11,25,06,27,1.10
2013,11,25,06,28,1.10
2013,11,25,06,29,1.00
2013,11,25,06,30,1.00
2013,11,25,06,31,1.00
2013,11,25,06,32,1.00
2013,11,25,06,33,1.00
2013,11,25,06,34,1.10
2013,11,25,06,35,1.10
2013,11,25,06,36,1.10
2013,11,25,06,37,1.10
2013,11,25,06,38,1.20
2013,11,25,06,39,1.20
2013,11,25,06,40,1.20
2013,11,25,06,41,1.20
2013,11,25,06,42,1.20
2013,11,25,06,43,1.10
2013,11,25,06,44,1.10
2013,11,25,06,45,1.00
2013,11,25,06,46,1.00
2013,11,25,06,47,0.90
2013,11,25,06,48,0.90
2013,11,25,06,49,0.90
2013,11,25,06,50,0.80
2013,11,25,06,51,0.80
2013,11,25,06,52,0.80
2013,11,25,06,53,0.80
2013,11,25,06,54,0.80
2013,11,25,06,55,0.80
2013,11,25,06,56,0.80
2013,11,25,06,57,0.80
2013,11,25,06,58,0.80
2013,11,25,06,59,0.80
2013,11,25,07,00,0.80
2013,11,25,07,01,0.80
2013,11,25,07,02,0.80
2013,11,25,07,03,0.70
2013,11,25,07,04,0.70
2013,11,25,07,05,0.70
2013,11,25,07,06,0.80
2013,11,25,07,07,0.90
2013,11,25,07,08,1.00
2013,11,25,07,09,1.10
2013,11,25,07,10,1.20
2013,11,25,07,11,1.40
2013,11,25,07,12,1.50
2013,11,25,07,13,1.60
2013,11,25,07,14,1.70
2013,11,25,07,15,1.80
2013,11,25,07,16,1.80
2013,11,25,07,17,1.70
2013,11,25,07,18,1.70
2013,11,25,07,19,1.80
2013,11,25,07,20,1.80
2013,11,25,07,21,1.90
2013,11,25,07,22,1.90
2013,11,25,07,23,2.00
2013,11,25,07,24,2.10
2013,11,25,07,25,2.00
2013,11,25,07,26,1.90
2013,11,25,07,27,1.90
2013,11,25,07,28,1.90
2013,11,25,07,29,1.90
2013,11,25,07,30,1.90
2013,11,25,07,31,1.80
2013,11,25,07,32,1.70
2013,11,25,07,33,1.60
2013,11,25,07,34,1.60
2013,11,25,07,35,1.50
2013,11,25,07,36,1.40
2013,11,25,07,37,1.30
2013,11,25,07,38,1.20
2013,11,25,07,39,1.20
2013,11,25,07,40,1.20
2013,11,25,07,41,1.10
2013,11,25,07,42,1.10
2013,11,25,07,43,1.10
2013,11,25,07,44,1.00
2013,11,25,07,45,1.00
2013,11,25,07,46,0.90
2013,11,25,07,47,0.90
2013,11,25,07,48,0.90
2013,11,25,07,49,0.80
2013,11,25,07,50,0.80
2013,11,25,07,51,0.80
2013,11,25,07,52,0.80
2013,11,25,07,53,0.80
2013,11,25,07,54,0.90
2013,11,25,07,55,1.00
2013,11,25,07,56,1.20
2013,11,25,07,57,1.30
2013,11,25,07,58,1.30
2013,11,25,07,59,1.30
2013,11,25,08,00,1.30
2013,11,25,08,01,1.30
2013,11,25,08,02,1.30
2013,11,25,08,03,1.20
2013,11,25,08,04,1.20
2013,11,25,08,05,1.20
2013,11,25,08,06,1.20
2013,11,25,08,07,1.30
2013,11,25,08,08,1.40
2013,11,25,08,09,1.50
2013,11,25,08,10,1.50
2013,11,25,08,11,1.50
2013,11,25,08,12,1.50
2013,11,25,08,13,1.50
2013,11,25,08,14,1.50
2013,11,25,08,15,1.50
2013,11,25,08,16,1.50
2013,11,25,08,17,1.60
2013,11,25,08,18,1.60
2013,11,25,08,19,1.60
2013,11,25,08,20,1.60
2013,11,25,08,21,1.60
2013,11,25,08,22,1.70
2013,11,25,08,23,1.70
2013,11,25,08,24,1.70
2013,11,25,08,25,1.70
2013,11,25,08,26,1.80
2013,11,25,08,27,1.80
2013,11,25,08,28,1.80
2013,11,25,08,29,1.80
2013,11,25,08,30,1.80
2013,11,25,08,31,1.80
2013,11,25,08,32,1.80
2013,11,25,08,33,1.90
2013,11,25,08,34,1.90
2013,11,25,08,35,2.00
2013,11,25,08,36,2.00
2013,11,25,08,37,2.00
2013,11,25,08,38,2.00
2013,11,25,08,39,1.90
2013,11,25,08,40,1.90
2013,11,25,08,41,1.90
2013,11,25,08,42,1.90
2013,11,25,08,43,1.90
2013,11,25,08,44,1.90
2013,11,25,08,45,1.90
2013,11,25,08,46,1.90
2013,11,25,08,47,2.00
2013,11,25,08,48,2.00
2013,11,25,08,49,2.00
2013,11,25,08,50,2.00
2013,11,25,08,51,2.00
2013,11,25,08,52,2.10
2013,11,25,08,53,2.10
2013,11,25,08,54,2.10
2013,11,25,08,55,2.00
2013,11,25,08,56,2.00
2013,11,25,08,57,2.00
2013,11,25,08,58,2.00
2013,11,25,08,59,2.00
2013,11,25,09,00,2.00
2013,11,25,09,01,2.10
2013,11,25,09,02,2.10
2013,11,25,09,03,2.10
2013,11,25,09,04,2.10
2013,11,25,09,05,2.10
2013,11,25,09,06,2.10
2013,11,25,09,07,2.10
2013,11,25,09,08,2.20
2013,11,25,09,09,2.20
2013,11,25,09,10,2.20
2013,11,25,09,11,2.30
2013,11,25,09,12,2.30
2013,11,25,09,13,2.40
2013,11,25,09,14,2.40
2013,11,25,09,15,2.50
2013,11,25,09,16,2.60
2013,11,25,09,17,2.60
2013,11,25,09,18,2.70
2013,11,25,09,19,2.70
2013,11,25,09,20,2.70
2013,11,25,09,21,2.80
2013,11,25,09,22,2.80
2013,11,25,09,23,2.80
2013,11,25,09,24,2.90
2013,11,25,09,25,2.90
2013,11,25,09,26,3.00
2013,11,25,09,27,3.10
2013,11,25,09,28,3.10
2013,11,25,09,29,3.20
2013,11,25,09,30,3.30
2013,11,25,09,31,3.40
2013,11,25,09,32,3.40
2013,11,25,09,33,3.50
2013,11,25,09,34,3.60
2013,11,25,09,35,3.70
2013,11,25,09,36,3.80
2013,11,25,09,37,3.80
2013,11,25,09,38,3.90
2013,11,25,09,39,4.00
2013,11,25,09,40,4.10
2013,11,25,09,41,4.20
2013,11,25,09,42,4.30
2013,11,25,09,43,4.30
2013,11,25,09,44,4.40
2013,11,25,09,45,4.50
2013,11,25,09,46,4.50
2013,11,25,09,47,4.60
2013,11,25,09,48,4.70
2013,11,25,09,49,4.70
2013,11,25,09,50,4.80
2013,11,25,09,51,4.80
2013,11,25,09,52,4.90
2013,11,25,09,53,4.90
2013,11,25,09,54,5.00
2013,11,25,09,55,5.00
2013,11,25,09,56,5.10
2013,11,25,09,57,5.10
2013,11,25,09,58,5.20
2013,11,25,09,59,5.20
2013,11,25,10,00,5.20
2013,11,25,10,01,5.30
2013,11,25,10,02,5.30
2013,11,25,10,03,5.40
2013,11,25,10,04,5.40
2013,11,25,10,05,5.50
2013,11,25,10,06,5.60
2013,11,25,10,07,5.60
2013,11,25,10,08,5.70
2013,11,25,10,09,5.70
2013,11,25,10,10,5.80
2013,11,25,10,11,5.80
2013,11,25,10,12,5.90
2013,11,25,10,13,6.00
2013,11,25,10,14,6.10
2013,11,25,10,15,6.20
2013,11,25,10,16,6.30
2013,11,25,10,17,6.40
2013,11,25,10,18,6.50
2013,11,25,10,19,6.50
2013,11,25,10,20,6.60
2013,11,25,10,21,6.60
2013,11,25,10,22,6.70
2013,11,25,10,23,6.80
2013,11,25,10,24,6.80
2013,11,25,10,25,6.80
2013,11,25,10,26,6.80
2013,11,25,10,27,6.80
2013,11,25,10,28,6.80
2013,11,25,10,29,6.70
2013,11,25,10,30,6.70
2013,11,25,10,31,6.70
2013,11,25,10,32,6.70
2013,11,25,10,33,6.70
2013,11,25,10,34,6.70
2013,11,25,10,35,6.70
2013,11,25,10,36,6.80
2013,11,25,10,37,6.80
2013,11,25,10,38,6.80
2013,11,25,10,39,6.90
2013,11,25,10,40,6.90
2013,11,25,10,41,7.00
2013,11,25,10,42,7.00
2013,11,25,10,43,7.10
2013,11,25,10,44,7.10
2013,11,25,10,45,7.20
2013,11,25,10,46,7.20
2013,11,25,10,47,7.30
2013,11,25,10,48,7.30
2013,11,25,10,49,7.40
2013,11,25,10,50,7.40
2013,11,25,10,51,7.40
2013,11,25,10,52,7.40
2013,11,25,10,53,7.40
2013,11,25,10,54,7.30
2013,11,25,10,55,7.30
2013,11,25,10,56,7.20
2013,11,25,10,57,7.10
2013,11,25,10,58,7.00
2013,11,25,10,59,6.90
2013,11,25,11,00,6.90
2013,11,25,11,01,6.80
2013,11,25,11,02,6.80
2013,11,25,11,03,6.70
2013,11,25,11,04,6.70
2013,11,25,11,05,6.60
2013,11,25,11,06,6.60
2013,11,25,11,07,6.50
2013,11,25,11,08,6.50
2013,11,25,11,09,6.50
2013,11,25,11,10,6.50
2013,11,25,11,11,6.40
2013,11,25,11,12,6.40
2013,11,25,11,13,6.40
2013,11,25,11,14,6.40
2013,11,25,11,15,6.50
2013,11,25,11,16,6.50
2013,11,25,11,17,6.50
2013,11,25,11,18,6.60
2013,11,25,11,19,6.60
2013,11,25,11,20,6.60
2013,11,25,11,21,6.60
2013,11,25,11,22,6.60
2013,11,25,11,23,6.60
2013,11,25,11,24,6.60
2013,11,25,11,25,6.60
2013,11,25,11,26,6.70
2013,11,25,11,27,6.70
2013,11,25,11,28,6.70
2013,11,25,11,29,6.70
2013,11,25,11,30,6.70
2013,11,25,11,31,6.70
2013,11,25,11,32,6.70
2013,11,25,11,33,6.70
2013,11,25,11,34,6.70
2013,11,25,11,35,6.70
2013,11,25,11,36,6.70
2013,11,25,11,37,6.70
2013,11,25,11,38,6.70
2013,11,25,11,39,6.70
2013,11,25,11,40,6.70
2013,11,25,11,41,6.80
2013,11,25,11,42,6.80
2013,11,25,11,43,6.80
2013,11,25,11,44,6.80
2013,11,25,11,45,6.80
2013,11,25,11,46,6.80
2013,11,25,11,47,6.90
2013,11,25,11,48,6.90
2013,11,25,11,49,6.90
2013,11,25,11,50,6.90
2013,11,25,11,51,7.00
2013,11,25,11,52,7.00
2013,11,25,11,53,7.00
2013,11,25,11,54,7.10
2013,11,25,11,55,7.10
2013,11,25,11,56,7.10
2013,11,25,11,57,7.10
2013,11,25,11,58,7.10
2013,11,25,11,59,7.10
2013,11,25,12,00,7.10
2013,11,25,12,01,7.10
2013,11,25,12,02,7.10
2013,11,25,12,03,7.10
2013,11,25,12,04,7.10
2013,11,25,12,05,7.10
2013,11,25,12,06,7.10
2013,11,25,12,07,7.10
2013,11,25,12,08,7.10
2013,11,25,12,09,7.20
2013,11,25,12,10,7.20
2013,11,25,12,11,7.20
2013,11,25,12,12,7.20
2013,11,25,12,13,7.20
2013,11,25,12,14,7.20
2013,11,25,12,15,7.30
2013,11,25,12,16,7.30
2013,11,25,12,17,7.30
2013,11,25,12,18,7.30
2013,11,25,12,19,7.30
2013,11,25,12,20,7.30
2013,11,25,12,21,7.40
2013,11,25,12,22,7.40
2013,11,25,12,23,7.40
2013,11,25,12,24,7.50
2013,11,25,12,25,7.50
2013,11,25,12,26,7.60
2013,11,25,12,27,7.60
2013,11,25,12,28,7.70
2013,11,25,12,29,7.70
2013,11,25,12,30,7.70
2013,11,25,12,31,7.80
2013,11,25,12,32,7.80
2013,11,25,12,33,7.80
2013,11,25,12,34,7.90
2013,11,25,12,35,7.90
2013,11,25,12,36,7.90
2013,11,25,12,37,7.90
2013,11,25,12,38,8.00
2013,11,25,12,39,8.00
2013,11,25,12,40,8.00
2013,11,25,12,41,8.00
2013,11,25,12,42,8.00
2013,11,25,12,43,8.10
2013,11,25,12,44,8.10
2013,11,25,12,45,8.10
2013,11,25,12,46,8.10
2013,11,25,12,47,8.10
2013,11,25,12,48,8.10
2013,11,25,12,49,8.10
2013,11,25,12,50,8.10
2013,11,25,12,51,8.20
2013,11,25,12,52,8.20
2013,11,25,12,53,8.20
2013,11,25,12,54,8.30
2013,11,25,12,55,8.30
2013,11,25,12,56,8.40
2013,11,25,12,57,8.50
2013,11,25,12,58,8.50
2013,11,25,12,59,8.60
2013,11,25,13,00,8.70
2013,11,25,13,01,8.70
2013,11,25,13,02,8.80
2013,11,25,13,03,8.80
2013,11,25,13,04,8.90
2013,11,25,13,05,8.90
2013,11,25,13,06,8.90
2013,11,25,13,07,9.00
2013,11,25,13,08,9.00
2013,11,25,13,09,9.00
2013,11,25,13,10,9.00
2013,11,25,13,11,9.00
2013,11,25,13,12,9.00
2013,11,25,13,13,9.00
2013,11,25,13,14,9.00
2013,11,25,13,15,9.10
2013,11,25,13,16,9.10
2013,11,25,13,17,9.20
2013,11,25,13,18,9.20
2013,11,25,13,19,9.20
2013,11,25,13,20,9.30
2013,11,25,13,21,9.30
2013,11,25,13,22,9.30
2013,11,25,13,23,9.30
2013,11,25,13,24,9.30
2013,11,25,13,25,9.30
2013,11,25,13,26,9.30
2013,11,25,13,27,9.30
2013,11,25,13,28,9.40
2013,11,25,13,29,9.40
2013,11,25,13,30,9.40
2013,11,25,13,31,9.50
2013,11,25,13,32,9.60
2013,11,25,13,33,9.60
2013,11,25,13,34,9.60
2013,11,25,13,35,9.60
2013,11,25,13,36,9.70
2013,11,25,13,37,9.70
2013,11,25,13,38,9.70
2013,11,25,13,39,9.60
2013,11,25,13,40,9.60
2013,11,25,13,41,9.60
2013,11,25,13,42,9.60
2013,11,25,13,43,9.60
2013,11,25,13,44,9.60
2013,11,25,13,45,9.60
2013,11,25,13,46,9.60
2013,11,25,13,47,9.60
2013,11,25,13,48,9.60
2013,11,25,13,49,9.60
2013,11,25,13,50,9.50
2013,11,25,13,51,9.50
2013,11,25,13,52,9.50
2013,11,25,13,53,9.40
2013,11,25,13,54,9.40
2013,11,25,13,55,9.40
2013,11,25,13,56,9.40
2013,11,25,13,57,9.40
2013,11,25,13,58,9.40
2013,11,25,13,59,9.40
2013,11,25,14,00,9.40
2013,11,25,14,01,9.50
2013,11,25,14,02,9.50
2013,11,25,14,03,9.60
2013,11,25,14,04,9.60
2013,11,25,14,05,9.60
2013,11,25,14,06,9.70
2013,11,25,14,07,9.70
2013,11,25,14,08,9.70
2013,11,25,14,09,9.60
2013,11,25,14,10,9.60
2013,11,25,14,11,9.60
2013,11,25,14,12,9.60
2013,11,25,14,13,9.60
2013,11,25,14,14,9.60
2013,11,25,14,15,9.60
2013,11,25,14,16,9.60
2013,11,25,14,17,9.60
2013,11,25,14,18,9.60
2013,11,25,14,19,9.60
2013,11,25,14,20,9.60
2013,11,25,14,21,9.60
2013,11,25,14,22,9.50
2013,11,25,14,23,9.50
2013,11,25,14,24,9.50
2013,11,25,14,25,9.50
2013,11,25,14,26,9.50
2013,11,25,14,27,9.50
2013,11,25,14,28,9.50
2013,11,25,14,29,9.40
2013,11,25,14,30,9.40
2013,11,25,14,31,9.40
2013,11,25,14,32,9.40
2013,11,25,14,33,9.40
2013,11,25,14,34,9.40
2013,11,25,14,35,9.30
2013,11,25,14,36,9.30
2013,11,25,14,37,9.30
2013,11,25,14,38,9.30
2013,11,25,14,39,9.30
2013,11,25,14,40,9.30
2013,11,25,14,41,9.20
2013,11,25,14,42,9.20
2013,11,25,14,43,9.20
2013,11,25,14,44,9.10
2013,11,25,14,45,9.10
2013,11,25,14,46,9.10
2013,11,25,14,47,9.00
2013,11,25,14,48,9.00
2013,11,25,14,49,9.00
2013,11,25,14,50,8.90
2013,11,25,14,51,8.90
2013,11,25,14,52,8.90
2013,11,25,14,53,8.90
2013,11,25,14,54,8.90
2013,11,25,14,55,8.90
2013,11,25,14,56,8.90
2013,11,25,14,57,8.90
2013,11,25,14,58,8.90
2013,11,25,14,59,8.90
2013,11,25,15,00,8.90
2013,11,25,15,01,8.90
2013,11,25,15,02,8.80
2013,11,25,15,03,8.80
2013,11,25,15,04,8.80
2013,11,25,15,05,8.80
2013,11,25,15,06,8.80
2013,11,25,15,07,8.80
2013,11,25,15,08,8.80
2013,11,25,15,09,8.70
2013,11,25,15,10,8.70
2013,11,25,15,11,8.70
2013,11,25,15,12,8.70
2013,11,25,15,13,8.70
2013,11,25,15,14,8.60
2013,11,25,15,15,8.60
2013,11,25,15,16,8.60
2013,11,25,15,17,8.60
2013,11,25,15,18,8.60
2013,11,25,15,19,8.60
2013,11,25,15,20,8.60
2013,11,25,15,21,8.70
2013,11,25,15,22,8.70
2013,11,25,15,23,8.60
2013,11,25,15,24,8.60
2013,11,25,15,25,8.60
2013,11,25,15,26,8.60
2013,11,25,15,27,8.60
2013,11,25,15,28,8.60
2013,11,25,15,29,8.50
2013,11,25,15,30,8.50
2013,11,25,15,31,8.40
2013,11,25,15,32,8.40
2013,11,25,15,33,8.30
2013,11,25,15,34,8.30
2013,11,25,15,35,8.30
2013,11,25,15,36,8.20
2013,11,25,15,37,8.20
2013,11,25,15,38,8.20
2013,11,25,15,39,8.20
2013,11,25,15,40,8.10
2013,11,25,15,41,8.10
2013,11,25,15,42,8.00
2013,11,25,15,43,8.00
2013,11,25,15,44,7.90
2013,11,25,15,45,7.90
2013,11,25,15,46,7.90
2013,11,25,15,47,7.80
2013,11,25,15,48,7.80
2013,11,25,15,49,7.80
2013,11,25,15,50,7.80
2013,11,25,15,51,7.80
2013,11,25,15,52,7.70
2013,11,25,15,53,7.70
2013,11,25,15,54,7.70
2013,11,25,15,55,7.70
2013,11,25,15,56,7.70
2013,11,25,15,57,7.70
2013,11,25,15,58,7.60
2013,11,25,15,59,7.60
2013,11,25,16,00,7.60
2013,11,25,16,01,7.60
2013,11,25,16,02,7.50
2013,11,25,16,03,7.50
2013,11,25,16,04,7.40
2013,11,25,16,05,7.40
2013,11,25,16,06,7.30
2013,11,25,16,07,7.30
2013,11,25,16,08,7.20
2013,11,25,16,09,7.10
2013,11,25,16,10,7.10
2013,11,25,16,11,7.00
2013,11,25,16,12,6.90
2013,11,25,16,13,6.90
2013,11,25,16,14,6.80
2013,11,25,16,15,6.80
2013,11,25,16,16,6.80
2013,11,25,16,17,6.70
2013,11,25,16,18,6.70
2013,11,25,16,19,6.60
2013,11,25,16,20,6.60
2013,11,25,16,21,6.50
2013,11,25,16,22,6.40
2013,11,25,16,23,6.40
2013,11,25,16,24,6.40
2013,11,25,16,25,6.30
2013,11,25,16,26,6.20
2013,11,25,16,27,6.20
2013,11,25,16,28,6.10
2013,11,25,16,29,6.10
2013,11,25,16,30,6.10
2013,11,25,16,31,6.00
2013,11,25,16,32,6.00
2013,11,25,16,33,5.90
2013,11,25,16,34,5.90
2013,11,25,16,35,5.80
2013,11,25,16,36,5.80
2013,11,25,16,37,5.80
2013,11,25,16,38,5.70
2013,11,25,16,39,5.70
2013,11,25,16,40,5.70
2013,11,25,16,41,5.60
2013,11,25,16,42,5.60
2013,11,25,16,43,5.50
2013,11,25,16,44,5.50
2013,11,25,16,45,5.40
2013,11,25,16,46,5.40
2013,11,25,16,47,5.30
2013,11,25,16,48,5.30
2013,11,25,16,49,5.30
2013,11,25,16,50,5.20
2013,11,25,16,51,5.20
2013,11,25,16,52,5.20
2013,11,25,16,53,5.20
2013,11,25,16,54,5.20
2013,11,25,16,55,5.10
2013,11,25,16,56,5.10
2013,11,25,16,57,5.00
2013,11,25,16,58,5.00
2013,11,25,16,59,4.90
2013,11,25,17,00,4.90
2013,11,25,17,01,4.80
2013,11,25,17,02,4.80
2013,11,25,17,03,4.80
2013,11,25,17,04,4.70
2013,11,25,17,05,4.70
2013,11,25,17,06,4.70
2013,11,25,17,07,4.60
2013,11,25,17,08,4.60
2013,11,25,17,09,4.60
2013,11,25,17,10,4.50
2013,11,25,17,11,4.40
2013,11,25,17,12,4.40
2013,11,25,17,13,4.40
2013,11,25,17,14,4.30
2013,11,25,17,15,4.30
2013,11,25,17,16,4.30
2013,11,25,17,17,4.30
2013,11,25,17,18,4.20
2013,11,25,17,19,4.20
2013,11,25,17,20,4.20
2013,11,25,17,21,4.20
2013,11,25,17,22,4.20
2013,11,25,17,23,4.10
2013,11,25,17,24,4.10
2013,11,25,17,25,4.00
2013,11,25,17,26,4.00
2013,11,25,17,27,4.00
2013,11,25,17,28,3.90
2013,11,25,17,29,3.90
2013,11,25,17,30,3.90
2013,11,25,17,31,3.80
2013,11,25,17,32,3.80
2013,11,25,17,33,3.80
2013,11,25,17,34,3.80
2013,11,25,17,35,3.70
2013,11,25,17,36,3.70
2013,11,25,17,37,3.70
2013,11,25,17,38,3.70
2013,11,25,17,39,3.60
2013,11,25,17,40,3.60
2013,11,25,17,41,3.60
2013,11,25,17,42,3.50
2013,11,25,17,43,3.50
2013,11,25,17,44,3.50
2013,11,25,17,45,3.40
2013,11,25,17,46,3.40
2013,11,25,17,47,3.40
2013,11,25,17,48,3.40
2013,11,25,17,49,3.40
2013,11,25,17,50,3.30
2013,11,25,17,51,3.30
2013,11,25,17,52,3.30
2013,11,25,17,53,3.30
2013,11,25,17,54,3.30
2013,11,25,17,55,3.20
2013,11,25,17,56,3.20
2013,11,25,17,57,3.20
2013,11,25,17,58,3.20
2013,11,25,17,59,3.20
2013,11,25,18,00,3.10
2013,11,25,18,01,3.10
2013,11,25,18,02,3.10
2013,11,25,18,03,3.10
2013,11,25,18,04,3.00
2013,11,25,18,05,3.00
2013,11,25,18,06,2.90